Location: Newark
(52.1752°N, 10.4140°W)
Time: 07:28:50
(UTC+00:00)

N. Korean satellite - Pass Details

Date: 16 November 2019
Orbit: 456 x 506 km, 97.2° (Epoch: 09 December)

Event Time Altitude Azimuth Distance (km) Brightness Sun altitude
Rises 07:22:09 0° 7° (N) 2,627 10.1 -6.5°
Reaches altitude 10° 07:24:21 10° 360° (N) 1,735 9.1 -6.2°
Maximum altitude 07:27:50 38° 291° (WNW) 785 7.1 -5.7°
Drops below altitude 10° 07:31:17 10° 222° (SW) 1,711 9.2 -5.2°
Sets 07:33:25 0° 215° (SW) 2,584 10.1 -4.9°
